TimePDT,TemperatureF,Dew PointF,Humidity,Sea Level PressureIn,VisibilityMPH,Wind Direction,Wind SpeedMPH,Gust SpeedMPH,PrecipitationIn,Events,Conditions,WindDirDegrees,DateUTC
12:53 AM,53.1,46.9,80,29.96,10.0,Calm,Calm,-,N/A,,Clear,0,2013-10-01 07:53:00
1:53 AM,48.0,46.0,93,29.96,10.0,SE,3.5,-,N/A,,Clear,130,2013-10-01 08:53:00
2:53 AM,46.9,45.0,93,29.95,10.0,SE,4.6,-,N/A,,Clear,140,2013-10-01 09:53:00
3:53 AM,46.0,44.1,93,29.94,10.0,Calm,Calm,-,N/A,,Clear,0,2013-10-01 10:53:00
4:53 AM,45.0,44.1,97,29.94,5.0,Calm,Calm,-,N/A,,Clear,0,2013-10-01 11:53:00
5:53 AM,45.0,43.0,93,29.95,9.0,Calm,Calm,-,N/A,,Clear,0,2013-10-01 12:53:00
6:44 AM,42.8,42.8,100,29.98,1.5,Calm,Calm,-,N/A,,Partly Cloudy,0,2013-10-01 13:44:00
6:47 AM,42.8,41.0,93,29.98,0.8,Calm,Calm,-,N/A,,Mist,0,2013-10-01 13:47:00
6:53 AM,42.1,41.0,96,29.96,10.0,Calm,Calm,-,N/A,Fog,Patches of Fog,0,2013-10-01 13:53:00
7:06 AM,42.8,42.8,100,29.98,10.0,Calm,Calm,-,N/A,Fog,Patches of Fog,0,2013-10-01 14:06:00
7:48 AM,44.6,42.8,93,29.99,5.0,Calm,Calm,-,N/A,,Partly Cloudy,0,2013-10-01 14:48:00
7:53 AM,45.0,44.1,97,29.97,9.0,Calm,Calm,-,N/A,,Scattered Clouds,0,2013-10-01 14:53:00
8:53 AM,51.1,48.0,89,29.99,10.0,Calm,Calm,-,N/A,,Scattered Clouds,0,2013-10-01 15:53:00
9:53 AM,57.9,48.9,72,29.99,10.0,Calm,Calm,-,N/A,,Clear,0,2013-10-01 16:53:00
10:53 AM,64.9,48.0,54,29.99,10.0,North,9.2,-,N/A,,Scattered Clouds,10,2013-10-01 17:53:00
11:53 AM,71.1,46.0,41,29.98,10.0,NNW,9.2,-,N/A,,Scattered Clouds,340,2013-10-01 18:53:00
12:53 PM,73.9,43.0,33,29.96,10.0,Variable,4.6,-,N/A,,Scattered Clouds,0,2013-10-01 19:53:00
1:53 PM,78.1,42.1,28,29.94,10.0,NNW,5.8,-,N/A,,Clear,340,2013-10-01 20:53:00
2:53 PM,79.0,41.0,26,29.92,10.0,Variable,3.5,-,N/A,,Clear,0,2013-10-01 21:53:00
3:53 PM,79.0,42.1,27,29.91,9.0,WNW,9.2,-,N/A,,Scattered Clouds,290,2013-10-01 22:53:00
4:53 PM,79.0,42.1,27,29.89,10.0,Variable,4.6,-,N/A,,Scattered Clouds,0,2013-10-01 23:53:00
5:53 PM,75.0,44.1,33,29.89,10.0,NNW,11.5,-,N/A,,Scattered Clouds,340,2013-10-02 00:53:00
6:53 PM,70.0,45.0,41,29.89,10.0,NNW,9.2,-,N/A,,Scattered Clouds,340,2013-10-02 01:53:00
7:53 PM,64.0,45.0,50,29.90,10.0,NNW,6.9,-,N/A,,Clear,340,2013-10-02 02:53:00
8:53 PM,61.0,46.0,58,29.92,10.0,North,6.9,-,N/A,,Clear,350,2013-10-02 03:53:00
9:53 PM,61.0,46.0,58,29.92,10.0,North,9.2,-,N/A,,Clear,350,2013-10-02 04:53:00
10:53 PM,59.0,46.0,62,29.93,10.0,North,8.1,-,N/A,,Clear,10,2013-10-02 05:53:00
11:53 PM,57.9,46.9,67,29.93,10.0,NNE,6.9,-,N/A,,Clear,20,2013-10-02 06:53:00